Location: Axtheid
(49.6213°N, 11.8205°E)
Time: 04:36:48
(UTC+00:00)

CZ-4B R/B - Pass Details

Date: 18 February 2020
Orbit: 486 x 653 km, 97.9° (Epoch: 29 March)

Event Time Altitude Azimuth Distance (km) Brightness Sun altitude
Rises 05:12:04 0° 2° (N) 2,664 6.3 -11.3°
Reaches altitude 10° 05:14:34 10° 346° (NNW) 1,745 5.2 -10.9°
Maximum altitude 05:17:23 21° 297° (WNW) 1,190 4.0 -10.5°
Enters shadow 05:19:43 12° 252° (WSW) 1,568 4.6 -10.1°
